CAPE
0 0 0 0 0 0 0 0 0 0 0 0 0 0 0 0 0 0 0 0 4 2 0 0 0 0 0 0 0 0 0 0 0 0 0 0 0 0 0 0 0 0 0 0
0 0 0 0 0 0 0 0 0 0 0 0 0 0 0 0 3 2 3 1 1 0 0 0 0 0 0 0 0 0 0 0 0 0 1 2 1 0 0 0 0 0 2 3
0 0 0 0 0 0 0 0 0 0 0 0 0 0 0 0 4 1 1 3 3 2 2 1 0 0 0 0 0 0 0 0 0 0 0 0 0 0 0 0 0 1 4 5
0 0 0 0 0 0 0 0 0 0 0 0 0 0 0 0 1 2 4 4 5 4 1 1 0 0 0 0 0 0 0 1 2 1 0 0 0 1 6 5 4 4 5 9
0 0 0 0 0 0 0 0 0 0 0 0 0 0 0 0 0 3 4 5 4 4 4 2 0 0 0 0 0 0 0 1 1 4 5 4 0 0 4 8 7 5 7 3
0 0 0 0 0 0 0 0 0 0 0 2 0 0 0 0 0 2 3 3 3 4 5 3 2 2 3 3 0 0 0 0 0 1 3 4 5 2 4 5 5 3 4 5
0 0 0 0 0 0 0 2 2 1 2 0 0 0 0 1 2 2 1 3 4 3 4 7 7 6 7 6 5 7 2 2 2 4 1 4 4 5 6 6 7 9 5 6
0 0 0 0 0 0 0 0 1 0 0 0 0 0 0 2 0 2 2 2 5 5 6 4 3 2 3 3 5 3 3 5 3 7 5 4 9 8 5 5 6 7 8 7
0 0 0 0 0 0 0 0 0 9 1 3 1 0 0 3 3 3 4 6 4 4 4 5 4 3 3 4 4 5 5 4 4 6 6 4 4 7 9 7 8 9 8 6
0 0 0 0 0 0 0 0 2 32 29 4 0 0 0 8 5 8 7 7 7 4 0 3 3 5 6 5 5 4 6 7 6 8 7 9 9 8 9 8 7 8 6 6
0 1 0 0 0 0 0 1 0 3 1 23 2 0 0 0 0 2 2 5 6 2 1 1 1 2 6 4 4 7 8 9 7 7 9 6 5 7 8 8 8 8 7 7
3 14 33 3 0 0 1 12 1 40 3 2 2 0 0 0 0 1 3 7 2 1 0 0 0 1 2 2 6 7 7 8 8 9 8 9 8 9 6 7 7 7 7 5
33 7 51 36 4 0 1 1 9 0 1 3 34 1 0 0 1 1 3 2 0 0 0 0 1 2 3 7 7 7 7 7 8 6 6 6 7 6 6 4 6 5 6 4
42 12 44 34 0 0 9 12 43 53 65 27 11 0 0 2 5 5 2 0 0 0 0 0 2 4 4 5 7 6 6 5 3 2 1 1 2 3 4 4 3 4 6 6
45 58 21 10 0 5 16 0 24 56 42 57 0 0 0 0 0 2 0 0 0 0 0 0 2 5 6 1 1 3 4 2 1 0 0 0 0 0 0 1 2 3 5 5
0 37 0 5 0 17 20 0 0 3 3 61 50 9 0 0 0 0 0 0 0 0 0 2 2 1 4 3 1 4 4 1 0 0 0 0 0 0 0 1 1 1 3 4
0 2 1 10 0 11 34 0 0 0 0 0 3 0 0 0 0 0 0 0 0 0 0 2 2 6 6 8 5 5 2 0 0 0 0 0 1 1 1 1 1 2 5 7
8 3 7 11 22 60 0 0 0 0 0 0 0 0 0 0 0 0 0 0 0 0 2 5 5 4 8 7 11 10 1 0 0 1 1 0 1 1 1 1 2 5 6 8
2 35 33 49 28 0 0 0 0 0 0 0 0 0 2 2 0 2 0 0 0 1 4 4 3 5 5 3 4 5 6 0 0 2 2 1 1 1 1 2 5 5 5 6
4 1 32 5 3 1 0 0 0 0 0 0 0 1 3 1 3 1 1 0 2 3 2 2 1 2 0 0 0 1 3 2 3 3 3 2 0 0 1 5 6 9 5 5
9 7 4 3 0 0 0 0 0 0 0 0 0 0 4 3 0 2 3 3 3 3 4 4 1 0 0 0 0 0 1 3 5 4 4 3 2 0 1 4 7 8 5 2
3 7 0 1 4 0 0 0 0 0 0 0 0 0 0 2 2 0 0 5 3 3 5 2 1 2 1 0 0 0 1 1 1 2 6 6 2 2 3 3 5 6 5 3
16 4 0 0 0 0 0 0 0 0 0 0 0 0 0 2 1 0 6 2 1 2 4 1 0 0 0 0 0 1 3 1 0 1 1 4 2 4 2 3 5 5 6 5
0 0 0 0 0 0 0 0 0 0 0 0 0 0 2 2 5 2 3 2 2 1 1 0 0 0 0 0 0 0 0 0 0 0 0 2 1 1 2 1 3 5 8 9
0 0 0 0 0 0 0 0 0 0 0 0 0 0 1 1 2 2 1 1 0 1 0 0 0 0 0 0 0 0 0 0 0 0 0 0 1 0 1 8 9 7 10 10
0 0 0 0 0 0 0 0 0 0 0 0 0 0 0 0 0 0 1 0 0 1 1 0 0 0 0 0 0 0 0 0 0 0 0 1 0 1 1 0 1 1 4 5
CIN
0 0 0 0 0 0 0 0 0 0 0 0 0 0 0 0 0 0 0 0 0 0 0 0 0 0 0 0 0 0 0 0 0 0 0 0 0 0 0 0 0 0 0 0
0 0 0 0 0 0 0 0 0 0 0 0 0 0 0 0 0 0 0 0 0 0 0 0 0 0 0 0 0 0 0 0 0 0 0 0 0 0 0 0 0 0 0 0
0 0 0 0 0 0 0 0 0 0 0 0 0 0 0 0 0 0 0 0 0 0 0 0 0 0 0 0 0 0 0 0 0 0 0 0 0 0 0 0 0 0 0 0
0 0 0 0 0 0 0 0 0 0 0 0 0 0 0 0 0 0 0 0 0 0 0 0 0 0 0 0 0 0 0 0 0 0 0 0 0 0 0 0 0 0 0 0
0 0 0 0 0 0 0 0 0 0 0 0 0 0 0 0 0 0 0 0 0 0 0 0 0 0 0 0 0 0 0 -0 0 0 0 0 0 0 0 0 0 0 0 0
0 0 0 0 0 0 0 0 0 0 0 0 0 0 0 0 0 0 0 0 0 0 0 0 0 0 0 0 0 0 0 0 0 0 0 0 0 0 0 0 0 0 0 0
0 0 0 0 0 0 0 -2 -0 -0 -1 0 0 0 0 0 0 0 0 0 0 0 0 0 0 0 0 0 0 0 0 0 0 0 0 0 0 0 0 0 0 0 0 0
0 0 0 0 0 0 0 0 0 0 0 0 0 0 0 0 0 0 0 0 0 0 0 0 0 0 0 0 0 0 0 0 0 0 0 0 0 0 0 0 0 0 0 0
0 0 0 0 0 0 0 0 0 -2 0 0 0 0 -2 0 0 0 0 0 0 0 0 0 0 0 0 0 0 0 0 0 0 0 0 0 0 0 0 0 0 0 0 0
0 0 0 0 0 0 0 0 -1 0 0 -0 0 0 0 0 0 0 0 0 0 0 0 0 0 0 0 0 0 0 0 0 0 0 0 0 0 0 0 0 0 0 0 0
0 -18 0 0 -2 0 0 0 0 -20 -18 -0 -0 0 0 0 0 0 0 0 0 0 0 0 0 0 0 0 0 0 0 0 0 0 0 0 0 0 0 0 0 0 0 0
-126 -69 -12 -27 0 0 -2 -23 -13 -0 -14 0 0 -0 0 0 0 0 0 0 0 0 0 0 0 0 0 0 0 0 0 0 0 0 0 0 0 0 0 0 0 0 0 0
-101 -34 -2 -6 0 0 -20 -8 -53 -3 0 0 -0 0 0 0 0 0 0 0 0 0 0 0 0 0 0 0 0 0 0 0 0 0 0 0 0 0 0 0 0 0 0 0
-86 -63 -4 -0 0 0 -19 -57 -47 -28 -1 -1 0 0 0 0 0 0 0 0 0 0 0 0 0 0 0 0 0 0 0 0 0 0 0 0 0 0 0 0 0 0 0 0
-54 -2 -35 -21 0 -42 -19 -5 -25 -18 -21 -0 0 0 0 0 0 0 0 0 0 0 0 0 0 0 0 0 0 0 0 0 0 0 0 0 0 0 0 0 0 0 0 0
0 -2 -3 -7 0 -32 -26 0 0 -22 -21 -10 -31 -55 0 0 -0 0 0 0 0 0 0 0 0 0 0 0 0 0 0 0 0 0 0 0 0 0 0 0 0 0 0 0
0 -3 -2 -0 0 -11 0 0 0 0 0 0 0 -19 0 0 0 0 0 0 0 0 0 0 0 0 0 0 0 0 0 0 0 0 0 0 0 0 0 0 0 0 0 0
-2 -2 0 -0 -3 0 0 0 0 -27 0 0 0 0 0 0 0 0 0 0 0 0 0 0 0 0 0 0 0 0 0 0 0 0 0 0 0 0 0 0 0 0 0 0
-28 0 -0 0 -0 -0 0 0 0 0 0 0 0 0 0 0 0 0 0 0 0 0 0 0 0 0 0 0 0 0 0 0 0 0 0 0 0 0 0 0 0 0 0 0
-0 -2 -0 -14 -6 -11 0 0 0 0 0 0 0 0 0 0 0 0 0 0 0 0 0 0 0 0 0 0 0 0 0 0 0 0 0 0 0 0 0 0 0 0 0 0
0 0 0 0 0 0 0 0 0 0 0 0 0 0 0 -0 0 0 0 0 0 0 0 0 0 0 0 0 0 0 0 0 0 0 0 0 0 0 0 0 0 0 0 0
-10 -21 0 0 -1 0 0 0 0 0 0 0 0 0 -0 0 0 0 0 0 0 0 0 0 0 0 0 0 0 0 0 0 0 0 0 0 0 0 0 0 0 0 0 0
-5 -77 0 0 0 0 0 0 0 0 0 0 0 0 0 0 0 0 0 0 0 0 0 0 0 0 0 0 0 0 0 0 0 0 0 0 0 0 0 0 0 0 0 0
0 0 0 0 0 0 0 0 0 0 0 0 0 0 0 0 0 0 0 0 0 0 0 0 0 0 0 0 0 0 0 0 0 0 0 0 0 0 0 0 0 0 0 0
0 0 0 0 0 0 0 0 0 0 0 0 0 0 0 0 0 0 0 0 0 0 0 0 0 0 0 0 0 0 0 0 0 0 0 0 0 0 0 0 0 0 0 0
0 0 0 0 0 0 0 0 0 0 0 0 0 0 0 0 0 0 0 0 0 0 0 0 0 0 0 0 0 0 0 0 0 0 0 0 0 0 0 0 0 0 0 0
Wind_Speed
2 6 12 13 9 3 4 2 6 5 9 6 5 12 13 8 12 14 15 13 13 13 12 16 17 17 18 18 19 19 18 16 13 11 9 6 7 6 7 8 11 10 8 8
4 11 12 6 8 8 6 7 12 7 5 6 8 15 5 10 10 10 11 12 11 12 14 16 18 18 17 17 18 18 17 16 12 9 9 5 7 5 6 8 9 11 11 9
7 1 7 11 8 7 4 10 7 8 6 4 6 1 4 8 10 10 12 12 12 12 12 12 14 16 15 16 16 15 15 15 13 13 7 8 6 9 8 10 9 11 12 11
6 2 7 8 5 7 5 10 9 7 5 4 5 6 8 3 9 10 9 9 9 9 9 9 10 12 13 12 12 14 13 14 12 13 11 13 8 9 10 10 9 9 11 11
4 5 5 7 8 7 4 5 5 1 3 4 4 6 5 1 2 4 3 5 6 5 5 5 6 6 6 8 10 10 12 12 12 12 13 9 12 10 10 9 11 10 9 11
2 0 4 5 3 7 6 4 4 4 0 7 7 9 6 6 4 5 4 4 3 3 5 7 8 10 11 12 12 11 11 12 13 14 15 15 12 10 9 12 10 9 10 9
1 6 2 3 4 2 6 5 2 3 3 6 3 6 10 10 7 6 7 5 2 1 4 7 10 11 12 14 15 13 12 12 12 14 14 14 12 11 9 10 10 13 10 9
8 4 12 8 17 7 9 10 6 6 4 1 1 7 2 7 8 7 7 6 4 4 5 5 6 7 9 11 12 13 13 14 14 12 11 11 10 7 8 10 10 9 9 9
7 4 2 3 4 13 6 7 8 6 3 4 6 4 5 10 9 10 9 8 5 2 2 6 7 8 9 11 12 12 12 12 13 14 11 11 11 12 11 12 11 9 10 10
5 3 5 5 6 3 5 10 4 4 5 6 6 8 8 15 14 13 13 9 6 4 1 4 6 7 8 9 10 11 12 11 11 11 10 10 10 11 12 11 12 12 12 13
5 3 3 8 9 13 6 6 2 3 3 5 6 7 5 17 19 19 14 10 8 6 4 4 5 7 7 9 10 10 11 11 11 11 11 11 11 12 11 12 12 13 14 15
7 3 8 15 2 8 7 9 12 5 5 3 2 11 1 12 17 16 14 12 10 6 5 5 6 7 8 9 9 9 10 10 11 10 9 10 10 10 11 12 13 14 15 15
7 3 5 5 1 2 7 8 9 6 3 14 7 9 5 8 13 15 15 13 11 8 5 5 5 6 7 7 8 9 9 9 9 10 9 10 11 11 12 12 13 13 13 14
3 6 8 10 3 4 6 11 14 15 7 9 17 21 9 11 12 13 15 14 12 9 6 5 5 6 6 7 8 9 9 9 9 9 10 10 11 12 12 12 12 13 13 14
6 11 7 13 10 7 8 12 13 16 17 12 21 16 13 19 17 16 14 13 12 9 6 5 5 5 6 7 8 8 8 9 8 9 10 10 11 10 11 12 13 13 13 14
4 10 6 14 9 13 14 15 14 16 19 17 18 21 7 14 11 16 17 17 15 11 8 7 6 5 6 7 7 8 8 8 8 10 11 12 12 12 13 13 13 14 14 15
4 5 7 12 6 7 10 19 18 14 17 15 17 19 10 11 19 21 19 16 14 13 11 9 7 5 6 6 6 8 8 8 10 11 12 12 12 13 13 13 14 14 15 13
7 5 4 8 5 13 4 2 6 14 17 15 10 7 17 14 10 12 14 15 14 13 12 9 7 6 5 5 6 5 8 9 10 11 11 12 12 12 12 12 13 13 12 13
17 12 9 7 8 6 7 7 8 8 9 12 11 13 14 15 13 6 10 11 13 13 11 8 7 7 6 7 6 7 7 9 10 10 10 11 11 11 11 11 12 11 11 12
14 16 14 5 9 9 3 2 5 4 10 14 15 19 20 17 9 8 13 13 14 13 11 10 8 7 8 5 7 9 8 9 10 9 10 10 11 10 9 11 12 11 12 12
6 5 10 4 3 5 5 7 5 5 4 8 13 15 18 12 1 15 16 14 14 13 13 11 9 8 6 7 7 9 8 8 7 8 9 10 9 10 11 11 11 11 12 11
9 7 4 3 6 11 9 8 8 1 2 7 12 14 11 10 16 17 16 15 14 15 13 11 9 8 7 7 9 8 8 6 7 8 8 9 10 8 9 11 11 11 11 12
7 6 7 9 5 1 1 3 2 3 5 7 12 13 15 17 17 17 15 15 12 12 11 9 9 9 7 7 6 8 6 6 7 7 7 8 9 9 10 12 11 10 11 11
3 2 3 3 4 4 4 1 3 2 5 9 12 17 17 18 17 16 13 12 11 10 11 10 10 9 8 6 7 6 6 6 6 7 7 7 8 9 10 8 9 9 9 9
2 7 6 2 1 0 7 8 8 8 10 12 14 16 16 19 16 18 14 13 10 10 10 10 9 9 9 7 6 6 5 5 6 6 6 6 6 8 7 8 9 8 10 12
5 6 6 5 7 3 1 13 13 13 12 14 17 14 14 17 17 17 13 12 12 11 11 10 10 10 8 7 7 6 6 5 6 6 5 5 5 5 5 4 6 15 15 16
Wind_Direction
171 182 209 205 196 143 142 217 274 274 271 298 275 301 292 349 45 24 17 63 55 55 47 40 35 32 29 30 29 26 23 20 19 17 6 3 18 10 20 14 9 8 7 6
131 236 222 135 173 201 231 272 269 288 268 284 301 304 55 62 70 55 54 54 50 44 38 33 29 26 27 26 25 25 24 18 22 27 21 5 334 1 359 355 355 2 355 356
175 203 169 174 167 189 216 240 255 267 317 263 317 118 181 85 83 66 60 59 55 49 43 35 31 29 25 25 24 20 20 17 16 11 29 31 19 11 353 348 351 353 351 348
229 200 133 166 188 177 234 221 241 262 305 295 358 296 204 155 65 67 68 70 57 48 48 42 33 35 30 25 18 32 17 16 15 15 22 37 41 19 345 333 337 340 348 343
215 166 161 205 227 170 239 167 204 223 235 305 213 257 134 150 112 98 59 85 89 82 67 72 68 61 47 42 38 23 29 19 19 11 34 22 33 27 330 328 337 351 345 343
194 207 158 186 80 180 134 104 61 57 330 263 227 223 162 188 197 193 174 160 133 69 26 24 18 14 18 17 14 27 33 20 11 22 22 27 11 357 339 348 342 347 350 341
172 218 166 164 135 67 168 149 276 243 191 258 101 221 278 179 209 212 179 155 141 76 26 19 16 15 14 16 16 8 13 21 21 19 25 11 5 356 355 347 356 350 339 341
189 239 179 193 213 183 188 208 209 241 209 217 187 239 276 168 169 151 154 171 141 76 42 23 20 23 19 14 17 13 12 8 10 16 14 23 2 3 1 8 358 345 337 334
168 252 177 177 148 179 169 206 234 266 178 245 226 244 209 166 179 174 191 191 160 111 29 16 14 20 11 13 16 16 7 12 8 4 3 12 10 3 1 4 353 345 338 343
194 174 219 136 113 65 196 148 132 175 234 231 225 253 244 193 189 194 202 184 170 158 87 8 14 15 19 16 22 17 11 12 11 6 8 6 11 15 15 12 6 358 356 357
161 221 151 148 204 173 164 199 162 193 220 256 271 251 206 200 190 197 198 180 173 172 129 33 16 22 24 22 25 19 13 11 7 13 10 13 10 22 16 18 10 6 5 3
208 198 232 219 56 204 197 195 192 210 203 224 331 266 247 204 190 193 184 172 172 156 116 68 42 20 19 21 25 22 17 12 6 12 20 16 19 23 29 23 18 17 16 12
171 200 238 212 254 299 207 195 197 209 229 236 250 268 120 156 173 188 179 167 159 145 121 71 61 40 28 31 31 28 22 17 14 21 21 23 20 26 29 30 23 26 23 18
210 186 240 247 217 160 199 215 214 208 230 262 248 274 191 196 195 196 178 162 150 147 129 101 72 60 48 41 42 42 33 23 21 26 28 25 27 22 29 26 27 29 24 21
172 255 230 251 238 216 240 239 222 215 227 235 270 252 231 199 194 188 163 153 147 149 136 118 100 76 66 57 51 47 42 33 29 36 34 32 31 26 32 28 28 28 27 24
176 252 243 261 236 226 238 241 241 238 244 249 254 263 219 206 180 161 168 164 161 158 145 128 112 100 77 64 59 52 43 35 38 42 38 32 32 31 33 28 29 30 28 28
189 209 195 253 238 217 243 237 229 232 233 231 235 244 163 169 178 179 173 165 161 154 146 135 126 110 79 75 76 61 49 40 42 41 39 38 30 31 29 28 29 29 28 23
211 205 220 256 205 230 249 170 228 236 244 219 240 190 185 183 155 152 162 155 152 151 138 135 127 109 85 83 62 80 49 51 50 49 44 38 33 32 30 29 28 26 26 30
210 218 239 242 229 298 264 198 190 186 255 199 198 149 133 126 119 116 147 147 144 142 128 124 118 116 104 90 91 89 73 58 57 52 48 44 40 32 27 25 26 28 26 31
217 226 223 202 190 224 243 174 144 141 270 190 169 164 156 150 172 168 150 136 129 123 126 128 125 113 93 80 88 86 76 67 58 49 49 46 46 36 22 24 28 28 31 32
180 180 220 163 185 278 219 154 157 176 271 164 173 164 164 174 37 135 136 132 131 132 134 133 123 107 97 98 92 86 84 74 68 67 60 53 43 47 33 34 33 32 34 28
210 179 203 175 208 247 151 122 194 137 51 153 147 153 135 117 124 131 134 132 134 137 136 132 119 106 100 101 99 90 77 74 72 65 67 57 50 44 38 37 37 36 31 32
211 198 180 195 207 347 2 33 56 154 150 156 147 140 137 136 138 137 133 136 136 136 134 131 121 111 95 89 95 94 76 85 81 74 62 65 57 47 43 43 38 39 38 35
227 197 157 148 178 215 229 151 139 177 136 147 147 145 145 140 142 139 135 138 135 135 132 130 127 116 104 93 85 79 78 88 88 80 74 65 62 56 48 50 45 40 38 39
204 156 161 273 242 203 242 210 163 122 127 127 140 149 147 141 144 142 139 138 134 129 131 131 123 118 106 100 87 70 70 102 96 86 76 69 65 58 65 54 40 51 42 39
195 173 186 213 189 194 188 164 151 142 141 141 137 137 146 145 140 139 136 139 139 135 133 125 120 118 110 100 83 68 74 88 100 91 77 65 64 52 56 52 71 46 43 37